Salem, OR

9:14 AM PST on November 22, 2017 (GMT -0800)
McNary

Weather History for KSLE - October, 2011

Change the Weather History Date:

Sunday, October 16, 2011

  Actual Average Record
Temperature  
Mean Temperature 55 °F 53 °F  
Max Temperature 62 °F 64 °F 83 °F (2002)
Min Temperature 48 °F 42 °F 23 °F (1902)
Degree Days  
Heating Degree Days 10 12  
Month to date heating degree days 139 152  
Since 1 July heating degree days 215 317  
Cooling Degree Days 0 0  
Month to date cooling degree days 0 0  
Year to date cooling degree days 316 289  
Growing Degree Days 2 (Base 50)    
Moisture  
Dew Point 49 °F    
Average Humidity 82    
Maximum Humidity 100    
Minimum Humidity 64    
Precipitation  
Precipitation 0.00 in 0.10 in 1.36 in (1947)
Month to date precipitation 1.85 1.15  
Year to date precipitation 26.30 24.43  
Snow  
Snow 0.00 in - - ()
Month to date snowfall 0.0  
Snow Depth 0.00 in    
Sea Level Pressure  
Sea Level Pressure 30.12 in    
Wind  
Wind Speed 1 mph (NNE)    
Max Wind Speed 8 mph    
Max Gust Speed 66 mph    
Visibility 4 miles    
Events Fog    
T = Trace of Precipitation, MM = Missing Value Source: NWS Daily Summary

Daily Weather History Graph

Daily Weather History Graph

Search for Another Location

Airport or City:

Trip Planner

Search our weather history database for the weather conditions in past years. The results will help you decide how hot, cold, wet, or windy it might be!

Date:

Astronomy

Oct. 16, 2011 Rise Set
Actual Time 7:28 AM PDT 6:25 PM PDT
Civil Twilight 6:59 AM PDT 6:55 PM PDT
Nautical Twilight 6:25 AM PDT 7:29 PM PDT
Astronomical Twilight 5:51 AM PDT 8:03 PM PDT
Moon 9:05 PM PDT (10/16) 12:01 PM PDT (10/16)
Length of Visible Light 11h 56m
Length of Day
10h 57m
Waning Gibbous, 81% of the Moon is Illuminated
Oct 16
Waning Gibbous
Oct 19
Last Quarter
Oct 26
New
Nov 2
First Quarter
Nov 10
Full

Hourly Weather History & Observations

Time (PDT) Temp. Dew Point Humidity Pressure Visibility Wind Dir Wind Speed Gust Speed Precip Events Conditions
12:08 AM 53.6 °F 51.8 °F 94% 29.99 in 9.0 mi Calm Calm - N/A   Overcast
12:56 AM 52.0 °F 51.1 °F 97% 29.99 in 6.0 mi Calm Calm - N/A   Mostly Cloudy
1:56 AM 52.0 °F 51.1 °F 97% 30.01 in 6.0 mi SE 3.5 mph - N/A   Mostly Cloudy
2:30 AM 51.8 °F 51.8 °F 100% 30.01 in 5.0 mi SE 4.6 mph 65.6 mph N/A   Scattered Clouds
3:56 AM 50.0 °F 48.9 °F 96% 30.03 in 1.5 mi Calm Calm - N/A   Clear
4:06 AM 51.8 °F 50.0 °F 94% 30.03 in 1.2 mi Calm Calm - N/A   Partly Cloudy
4:08 AM 51.8 °F 50.0 °F 94% 30.03 in 0.8 mi Calm Calm - N/A   Mist
4:39 AM 50.0 °F 50.0 °F 100% 30.03 in 0.8 mi Calm Calm - N/A   Overcast
4:44 AM 51.8 °F 50.0 °F 94% 30.03 in 1.5 mi Calm Calm - N/A   Overcast
4:47 AM 51.8 °F 50.0 °F 94% 30.03 in 4.0 mi Calm Calm - N/A   Overcast
4:56 AM 51.1 °F 50.0 °F 96% 30.04 in 3.0 mi Calm Calm - N/A   Overcast
5:01 AM 51.8 °F 51.8 °F 100% 30.04 in 1.8 mi Calm Calm - N/A   Overcast
5:05 AM 51.8 °F 51.8 °F 100% 30.04 in 0.8 mi Calm Calm - N/A   Overcast
5:35 AM 51.8 °F 51.8 °F 100% 30.04 in 0.2 mi Calm Calm - N/A Fog Fog
5:56 AM 52.0 °F 51.1 °F 97% 30.05 in 0.2 mi Calm Calm - N/A Fog Fog
6:18 AM 51.8 °F 51.8 °F 100% 30.05 in 0.5 mi Calm Calm - N/A Fog Fog
6:44 AM 51.8 °F 51.8 °F 100% 30.05 in 1.0 mi Calm Calm - N/A   Overcast
6:52 AM 51.8 °F 51.8 °F 100% 30.05 in 0.8 mi Calm Calm - N/A   Overcast
6:56 AM 51.1 °F 51.1 °F 100% 30.06 in 0.5 mi Calm Calm - N/A Fog Fog
7:28 AM 51.8 °F 50.0 °F 94% 30.07 in 1.2 mi Calm Calm - N/A   Overcast
7:56 AM 51.1 °F 50.0 °F 96% 30.08 in 0.5 mi West 3.5 mph - N/A Fog Fog
8:03 AM 51.8 °F 50.0 °F 94% 30.08 in 2.0 mi NW 5.8 mph - N/A   Overcast
8:08 AM 51.8 °F 50.0 °F 94% 30.08 in 1.2 mi NW 5.8 mph - N/A   Overcast
8:56 AM 52.0 °F 50.0 °F 93% 30.11 in 2.0 mi Calm Calm - N/A   Overcast
9:03 AM 51.8 °F 51.8 °F 100% 30.11 in 4.0 mi Calm Calm - N/A   Overcast
9:20 AM 51.8 °F 51.8 °F 100% 30.11 in 2.5 mi Calm Calm - N/A   Overcast
9:56 AM 53.1 °F 50.0 °F 89% 30.13 in 2.5 mi NE 3.5 mph - N/A   Overcast
10:03 AM 53.6 °F 50.0 °F 88% 30.13 in 2.5 mi NE 3.5 mph - N/A   Overcast
10:56 AM 55.9 °F 50.0 °F 80% 30.14 in 2.5 mi Calm Calm - N/A   Haze
11:03 AM 55.4 °F 48.2 °F 77% 30.15 in 4.0 mi Calm Calm - N/A   Haze
11:56 AM 55.9 °F 48.9 °F 77% 30.16 in 7.0 mi Calm Calm - N/A   Overcast
12:40 PM 57.2 °F 48.2 °F 72% 30.17 in 10.0 mi NE 3.5 mph - N/A   Overcast
12:56 PM 57.9 °F 50.0 °F 75% 30.17 in 10.0 mi Calm Calm - N/A   Overcast
1:56 PM 59.0 °F 50.0 °F 72% 30.18 in 10.0 mi North 4.6 mph - N/A   Overcast
2:56 PM 60.1 °F 48.9 °F 67% 30.19 in 10.0 mi Calm Calm - N/A   Overcast
3:32 PM 60.8 °F 50.0 °F 68% 30.19 in 10.0 mi ENE 5.8 mph - N/A   Scattered Clouds
4:56 PM 61.0 °F 50.0 °F 67% 30.20 in 10.0 mi Calm Calm - N/A   Clear
6:56 PM 53.1 °F 48.9 °F 86% 30.22 in 10.0 mi Calm Calm - N/A   Clear
7:56 PM 51.1 °F 48.0 °F 89% 30.23 in 10.0 mi Calm Calm - N/A   Clear
8:56 PM 48.0 °F 46.0 °F 93% 30.25 in 5.0 mi Calm Calm - N/A   Clear
9:56 PM 48.9 °F 46.0 °F 90% 30.27 in 7.0 mi Calm Calm - N/A   Clear
10:56 PM 46.9 °F 45.0 °F 93% 30.28 in 6.0 mi Calm Calm - N/A   Mostly Cloudy
11:04 PM 46.4 °F 44.6 °F 93% 30.28 in 1.5 mi Calm Calm - N/A   Scattered Clouds
11:06 PM 46.4 °F 44.6 °F 93% 30.28 in 0.8 mi Calm Calm - N/A   Scattered Clouds
11:24 PM 44.6 °F 44.6 °F 100% 30.29 in 1.5 mi Calm Calm - N/A   Clear
11:32 PM 46.4 °F 44.6 °F 93% 30.29 in 5.0 mi Calm Calm - N/A   Clear
11:56 PM 45.0 °F 44.1 °F 97% 30.29 in 5.0 mi Calm Calm - N/A   Clear